EW3206 Weather Reports


Display with metric or nautical units.
time (UTC)temp
F
wind
direction
speed
MPH
gust
MPH
rain 1hr
in
rain 24hr
in
rain mn
in
humidity
%
barometer
mb
20260507173309 59 62 0.0 1.0 0.00 0.00 0.00 58 14.6
20260507172309 59 63 0.0 0.0 0.00 0.00 0.00 58 14.5
20260507171309 59 46 0.0 1.0 0.00 0.00 0.00 57 14.6
20260507165309 59 51 0.0 1.0 0.00 0.00 0.00 57 14.5
20260507163309 59 74 0.0 1.0 0.00 0.00 0.00 57 14.5
20260507162309 59 348 0.0 2.0 0.00 0.00 0.00 57 14.4
20260507161309 59 58 0.0 4.0 0.00 0.00 0.00 56 14.5
20260507155309 60 55 0.0 1.0 0.00 0.00 0.00 56 14.4
20260507154309 60 75 0.0 6.0 0.00 0.00 0.00 55 14.4
20260507153309 61 69 0.0 1.0 0.00 0.00 0.00 54 14.4
20260507152309 61 78 0.0 2.0 0.00 0.00 0.00 51 14.4
20260507145310 62 125 0.0 0.0 0.00 0.00 0.00 52 14.2
20260507144309 62 140 0.0 3.0 0.00 0.00 0.00 53 14.2
20260507143309 62 132 0.0 2.0 0.00 0.00 0.00 51 14.3
20260507142309 62 134 0.0 3.0 0.00 0.00 0.00 51 14.3
20260507141310 62 118 0.0 1.0 0.00 0.00 0.00 51 14.3
20260507135309 61 140 1.0 7.0 0.00 0.00 0.00 52 14.4
20260507134309 61 95 3.0 9.0 0.00 0.00 0.00 51 14.5
20260507133309 62 42 0.0 3.0 0.00 0.00 0.00 49 14.5
20260507132309 62 61 0.0 6.0 0.00 0.00 0.00 48 14.3
20260507131309 62 96 0.0 5.0 0.00 0.00 0.00 48 14.3
20260507125310 63 48 2.0 10.0 0.00 0.00 0.00 46 14.4
20260507124309 65 74 3.0 10.0 0.00 0.00 0.00 44 14.2
20260507123309 66 84 0.0 10.0 0.00 0.00 0.00 44 14.2
20260507122309 65 302 1.0 8.0 0.00 0.00 0.00 44 14.3
20260507121309 63 313 0.0 5.0 0.00 0.00 0.00 50 14.2
20260507115309 61 32 0.0 4.0 0.00 0.00 0.00 50 14.3
20260507114309 61 31 0.0 3.0 0.00 0.00 0.00 50 14.1
20260507113309 60 143 1.0 6.0 0.00 0.00 0.00 53 14.1
20260507112309 60 57 1.0 7.0 0.00 0.00 0.00 52 14.3
20260507111309 61 52 0.0 2.0 0.00 0.00 0.00 51 14.4
20260507105309 63 344 1.0 9.0 0.00 0.00 0.00 49 14.4
20260507104309 63 330 3.0 9.0 0.00 0.00 0.00 50 14.2
20260507103309 62 94 4.0 11.0 0.00 0.00 0.00 48 14.3
20260507102309 63 20 1.0 10.0 0.00 0.00 0.00 50 14.1
20260507101309 63 95 0.0 5.0 0.00 0.00 0.00 51 14.3
20260507093309 61 74 3.0 9.0 0.00 0.00 0.00 52 14.1
20260507092309 61 81 0.0 9.0 0.00 0.00 0.00 53 14.1
20260507091309 60 58 1.0 5.0 0.00 0.00 0.00 54 14.0
20260507085309 60 91 4.0 8.0 0.00 0.00 0.00 54 14.0
20260507084309 60 81 1.0 6.0 0.00 0.00 0.00 55 13.9
20260507083309 60 45 0.0 4.0 0.00 0.00 0.00 56 13.9
20260507082309 60 40 0.0 1.0 0.00 0.00 0.00 57 14.1
20260507081313 59 69 0.0 5.0 0.00 0.00 0.00 58 14.0
20260507075310 57 69 0.0 3.0 0.00 0.00 0.00 58 13.6
20260507073309 54 36 2.0 6.0 0.00 0.00 0.00 61 13.6
20260507072309 52 355 1.0 7.0 0.00 0.00 0.00 65 13.5
20260507071309 51 103 0.0 4.0 0.00 0.00 0.00 66 13.5
20260507065311 50 79 0.0 6.0 0.00 0.00 0.00 69 13.5
20260507064309 49 5 1.0 9.0 0.00 0.00 0.00 70 13.5
20260507063309 49 74 1.0 5.0 0.00 0.00 0.00 72 13.4
20260507061309 47 355 0.0 1.0 0.00 0.00 0.00 78 13.2
20260507055309 46 14 0.0 0.0 0.00 0.00 0.00 79 13.3
20260507053310 45 35 0.0 0.0 0.00 0.00 0.00 79 13.2
20260507052310 45 35 0.0 0.0 0.00 0.00 0.00 79 13.1
20260507051309 45 35 0.0 0.0 0.00 0.00 0.00 78 12.9
20260507045310 45 35 0.0 0.0 0.00 0.00 0.00 77 12.7
20260507044311 45 35 0.0 0.0 0.00 0.00 0.00 77 12.6
20260507042309 46 35 0.0 0.0 0.00 0.00 0.00 76 12.5
20260507041309 46 35 0.0 0.0 0.00 0.00 0.00 76 12.5
20260507040309 46 35 0.0 0.0 0.00 0.00 0.00 75 12.4
20260507035309 47 35 0.0 0.0 0.00 0.00 0.00 75 12.4
20260507034309 47 65 0.0 0.0 0.00 0.00 0.00 75 12.3
20260507033309 47 65 0.0 0.0 0.00 0.00 0.00 75 12.3
20260507032310 47 74 0.0 0.0 0.00 0.00 0.00 75 12.2
20260507025309 47 44 0.0 0.0 0.00 0.00 0.00 75 12.1
20260507024310 47 350 0.0 0.0 0.00 0.00 0.00 75 11.9
20260507023309 47 340 0.0 0.0 0.00 0.00 0.00 75 11.8
20260507022309 47 343 0.0 0.0 0.00 0.00 0.00 75 11.7
20260507021309 47 32 0.0 0.0 0.00 0.00 0.00 74 11.7
20260507015309 48 65 0.0 0.0 0.00 0.00 0.00 74 11.6
20260507012309 49 355 0.0 0.0 0.00 0.00 0.00 74 11.7
20260507005309 49 355 0.0 0.0 0.00 0.00 0.00 73 11.4
20260507004309 49 42 0.0 1.0 0.00 0.00 0.00 73 11.4
20260507003310 49 14 0.0 1.0 0.00 0.00 0.00 73 11.2
20260507002309 49 67 0.0 1.0 0.00 0.00 0.00 72 11.3
20260507001310 49 26 0.0 1.0 0.00 0.00 0.00 72 11.3
20260506235309 50 30 1.0 5.0 0.00 0.00 0.00 71 11.2
20260506234309 50 5 0.0 8.0 0.00 0.00 0.00 70 11.3
20260506233309 50 44 0.0 4.0 0.00 0.00 0.00 70 11.2
20260506232309 50 55 0.0 4.0 0.00 0.00 0.00 70 11.1
20260506225309 51 17 0.0 0.0 0.00 0.00 0.00 70 11.0
20260506224309 51 24 0.0 0.0 0.00 0.00 0.00 70 10.9
20260506222309 51 54 0.0 0.0 0.00 0.00 0.00 70 10.8
20260506221310 51 34 0.0 2.0 0.00 0.00 0.00 70 10.8
20260506220309 51 65 0.0 1.0 0.00 0.00 0.00 70 10.7
20260506215309 51 75 0.0 0.0 0.00 0.00 0.00 69 10.8
20260506213309 52 75 0.0 0.0 0.00 0.00 0.00 68 10.7
20260506212309 52 103 0.0 0.0 0.00 0.00 0.00 67 10.6
20260506211310 52 119 0.0 0.0 0.00 0.00 0.00 68 10.5
20260506205309 52 119 0.0 0.0 0.00 0.00 0.00 67 10.4
20260506204309 52 119 0.0 0.0 0.00 0.00 0.00 66 10.4
20260506203309 52 119 0.0 0.0 0.00 0.00 0.00 65 10.3
20260506202309 52 119 0.0 0.0 0.00 0.00 0.00 65 10.2
20260506201309 52 119 0.0 0.0 0.00 0.00 0.00 65 10.2
20260506194309 53 119 0.0 0.0 0.00 0.00 0.00 65 10.2
20260506193309 53 119 0.0 0.0 0.00 0.00 0.00 64 10.0
20260506192310 53 119 0.0 0.0 0.00 0.00 0.00 64 9.6
20260506191309 53 119 0.0 0.0 0.00 0.00 0.00 64 9.5
20260506190309 53 117 0.0 0.0 0.00 0.00 0.00 63 9.5
20260506185310 53 119 0.0 0.0 0.00 0.00 0.00 63 9.3
20260506184309 53 119 0.0 0.0 0.00 0.00 0.00 63 9.2
20260506182309 54 99 0.0 0.0 0.00 0.00 0.00 63 9.1